Weather History for KLOT - June, 2013

Change the Weather History Date:

Wednesday, June 12, 2013

  Actual Average Record
Temperature  
Mean Temperature 76 °F 69 °F  
Max Temperature 89 °F 79 °F 90 °F (2008)
Min Temperature 63 °F 59 °F 49 °F (2006)
Degree Days  
Heating Degree Days 0 1  
Month to date heating degree days 35 24  
Since 1 June heating degree days 35 24  
Since 1 July heating degree days 6171 6210  
Cooling Degree Days 11 5  
Month to date cooling degree days 35 51  
Year to date cooling degree days 138 109  
Since 1 June cooling degree days 35 51  
Growing Degree Days 26 (Base 50)    
Moisture  
Dew Point 67 °F    
Average Humidity 81    
Maximum Humidity 96    
Minimum Humidity 51    
Precipitation  
Precipitation 1.85 in 0.17 in 1.85 in (2013)
Month to date precipitation 2.22 1.88  
Year to date precipitation 23.21 16.58  
Sea Level Pressure  
Sea Level Pressure 29.78 in    
Wind  
Wind Speed 7 mph (East)    
Max Wind Speed 26 mph    
Max Gust Speed 52 mph    
Visibility 8 miles    
Events Rain , Thunderstorm    
T = Trace of Precipitation, MM = Missing Value Source: NWS Daily Summary

Daily Weather History Graph

Daily Weather History Graph

Search for Another Location

Airport or City:

Trip Planner

Search our weather history database for the weather conditions in past years. The results will help you decide how hot, cold, wet, or windy it might be!

Date:

Astronomy

Jun. 12, 2013 Rise Set
Actual Time 5:17 AM CDT 8:27 PM CDT
Civil Twilight 4:43 AM CDT 9:01 PM CDT
Nautical Twilight 4:00 AM CDT 9:44 PM CDT
Astronomical Twilight 3:08 AM CDT 10:37 PM CDT
Moon 8:59 AM CDT (6/12) 11:00 PM CDT (6/12)
Length of Visible Light 16h 17m
Length of Day
15h 09m
Waxing Crescent, 14% of the Moon is Illuminated
Jun 12
Waxing Crescent
Jun 16
First Quarter
Jun 23
Full
Jun 29
Last Quarter
Jul 8
New

Hourly Weather History & Observations

Time (CDT) Temp. Heat Index Dew Point Humidity Pressure Visibility Wind Dir Wind Speed Gust Speed Precip Events Conditions
12:15 AM 69.8 °F - 65.3 °F 86% 29.83 in 10.0 mi South 6.9 mph - N/A   Clear
12:35 AM 69.4 °F - 64.9 °F 86% 29.85 in 10.0 mi NE 5.8 mph - N/A   Clear
12:55 AM 70.9 °F - 65.8 °F 84% 29.87 in 10.0 mi North 5.8 mph - N/A   Clear
1:15 AM 70.3 °F - 65.7 °F 85% 29.87 in 10.0 mi NNE 4.6 mph - N/A   Scattered Clouds
1:35 AM 70.5 °F - 65.3 °F 83% 29.86 in 10.0 mi NE 4.6 mph - N/A   Scattered Clouds
1:55 AM 69.6 °F - 65.1 °F 86% 29.86 in 10.0 mi Calm Calm - N/A   Clear
2:15 AM 69.1 °F - 64.8 °F 86% 29.87 in 10.0 mi ENE 3.5 mph - N/A   Clear
2:35 AM 68.0 °F - 65.3 °F 91% 29.87 in 10.0 mi NE 4.6 mph - N/A   Clear
2:55 AM 68.0 °F - 65.3 °F 91% 29.87 in 10.0 mi NNE 4.6 mph - N/A   Clear
3:15 AM 68.0 °F - 65.3 °F 91% 29.87 in 10.0 mi NE 6.9 mph - N/A   Clear
3:35 AM 68.5 °F - 65.3 °F 89% 29.87 in 10.0 mi NE 8.1 mph - N/A   Clear
3:55 AM 68.9 °F - 64.6 °F 86% 29.86 in 10.0 mi Calm Calm - N/A   Clear
4:15 AM 67.5 °F - 63.1 °F 86% 29.85 in 10.0 mi South 4.6 mph - N/A   Clear
4:35 AM 66.6 °F - 63.5 °F 90% 29.84 in 10.0 mi South 8.1 mph - N/A   Clear
4:55 AM 67.5 °F - 64.4 °F 90% 29.85 in 10.0 mi South 5.8 mph - N/A   Clear
5:15 AM 67.8 °F - 64.4 °F 89% 29.85 in 7.0 mi SSE 4.6 mph - N/A   Clear
5:35 AM 66.4 °F - 63.5 °F 90% 29.86 in 7.0 mi Calm Calm - N/A   Clear
5:55 AM 66.4 °F - 63.9 °F 92% 29.86 in 7.0 mi ENE 4.6 mph - N/A   Clear
6:15 AM 68.5 °F - 65.3 °F 89% 29.88 in 7.0 mi Calm Calm - N/A   Clear
6:35 AM 70.0 °F - 65.8 °F 87% 29.88 in 7.0 mi Calm Calm - N/A   Clear
6:55 AM 70.5 °F - 65.8 °F 85% 29.90 in 7.0 mi Calm Calm - N/A   Clear
7:15 AM 70.9 °F - 66.0 °F 85% 29.90 in 7.0 mi Calm Calm - N/A   Scattered Clouds
7:35 AM 70.9 °F - 66.2 °F 85% 29.91 in 7.0 mi NNE 4.6 mph - N/A   Mostly Cloudy
7:55 AM 72.1 °F - 66.2 °F 82% 29.92 in 10.0 mi North 5.8 mph - N/A   Overcast
8:15 AM 73.2 °F - 65.7 °F 77% 29.92 in 10.0 mi NNE 5.8 mph - N/A   Overcast
8:35 AM 73.2 °F - 65.8 °F 78% 29.89 in 7.0 mi ENE 6.9 mph - N/A   Scattered Clouds
8:55 AM 73.4 °F - 65.1 °F 75% 29.90 in 7.0 mi East 5.8 mph - N/A   Clear
9:15 AM 73.6 °F - 65.1 °F 75% 29.89 in 7.0 mi East 6.9 mph - N/A   Clear
9:35 AM 73.8 °F - 64.8 °F 73% 29.89 in 7.0 mi East 5.8 mph - N/A   Clear
9:55 AM 74.3 °F - 65.1 °F 73% 29.87 in 7.0 mi ESE 6.9 mph - N/A   Clear
10:15 AM 75.4 °F - 65.5 °F 71% 29.87 in 7.0 mi SSE 6.9 mph - N/A   Clear
10:35 AM 76.1 °F - 66.2 °F 71% 29.86 in 7.0 mi South 8.1 mph - N/A   Clear
10:55 AM 77.5 °F - 67.3 °F 71% 29.83 in 7.0 mi South 12.7 mph - N/A   Clear
11:15 AM 77.4 °F - 68.0 °F 73% 29.76 in 7.0 mi SE 16.1 mph - N/A   Clear
11:35 AM 77.9 °F - 68.9 °F 74% 29.72 in 10.0 mi SSE 18.4 mph - N/A   Clear
11:55 AM 78.6 °F - 69.4 °F 73% 29.74 in 10.0 mi South 15.0 mph - N/A   Clear
12:15 PM 79.2 °F - 69.8 °F 73% 29.72 in 10.0 mi South 16.1 mph - N/A   Clear
12:35 PM 80.6 °F 83.9 °F 70.2 °F 70% 29.73 in 10.0 mi South 16.1 mph 23.0 mph N/A   Clear
12:55 PM 81.0 °F 84.1 °F 69.3 °F 67% 29.73 in 10.0 mi SSW 18.4 mph - N/A   Clear
1:15 PM 81.5 °F 84.9 °F 69.6 °F 67% 29.76 in 10.0 mi SW 12.7 mph 19.6 mph N/A   Clear
1:35 PM 84.6 °F 88.8 °F 69.8 °F 61% 29.78 in 10.0 mi West 6.9 mph - N/A   Clear
1:55 PM 87.4 °F 92.3 °F 70.0 °F 56% 29.78 in 10.0 mi SW 8.1 mph - N/A   Scattered Clouds
2:15 PM 87.6 °F 91.1 °F 68.2 °F 52% 29.77 in 10.0 mi SW 15.0 mph - N/A   Mostly Cloudy
2:35 PM 88.7 °F 92.6 °F 68.2 °F 51% 29.77 in 10.0 mi WSW 11.5 mph 17.3 mph N/A   Scattered Clouds
2:55 PM 87.4 °F 91.2 °F 68.2 °F 53% 29.75 in 10.0 mi WSW 9.2 mph - N/A   Scattered Clouds
3:15 PM 88.2 °F 91.7 °F 68.2 °F 51% 29.74 in 10.0 mi SSW 6.9 mph - N/A   Mostly Cloudy
3:35 PM 84.9 °F 90.1 °F 71.1 °F 63% 29.74 in 10.0 mi ENE 10.4 mph - N/A   Mostly Cloudy
3:55 PM 85.1 °F 90.8 °F 71.8 °F 64% 29.72 in 10.0 mi ENE 11.5 mph - N/A   Scattered Clouds
4:15 PM 84.7 °F 90.4 °F 71.6 °F 65% 29.71 in 10.0 mi East 8.1 mph - N/A   Scattered Clouds
4:35 PM 84.2 °F 89.6 °F 71.8 °F 66% 29.69 in 10.0 mi East 9.2 mph - N/A Thunderstorm Scattered Clouds
4:55 PM 82.8 °F 87.7 °F 71.8 °F 69% 29.67 in 10.0 mi East 6.9 mph 10.4 mph N/A Thunderstorm Scattered Clouds
5:15 PM 80.4 °F 83.4 °F 68.9 °F 68% 29.67 in 10.0 mi East 17.3 mph - N/A Thunderstorm Thunderstorm
5:35 PM 77.9 °F - 67.1 °F 69% 29.65 in 10.0 mi ENE 24.2 mph 27.6 mph N/A Rain , Thunderstorm Light Thunderstorms and Rain
5:55 PM 72.0 °F - 68.0 °F 87% 29.70 in 1.8 mi NNE 26.5 mph 51.8 mph 0.21 in Rain , Thunderstorm Heavy Thunderstorms and Rain
6:15 PM 69.8 °F - 67.5 °F 92% 29.69 in 3.0 mi NE 8.1 mph 12.7 mph 0.17 in Rain , Thunderstorm Heavy Thunderstorms and Rain
6:35 PM 69.3 °F - 67.6 °F 95% 29.69 in 4.0 mi West 4.6 mph - 0.28 in Rain , Thunderstorm Heavy Thunderstorms and Rain
6:55 PM 69.4 °F - 68.4 °F 96% 29.65 in 5.0 mi East 5.8 mph - 0.49 in Rain , Thunderstorm Light Thunderstorms and Rain
7:15 PM 70.0 °F - 68.9 °F 96% 29.68 in 10.0 mi North 17.3 mph 21.9 mph 0.02 in Rain , Thunderstorm Heavy Thunderstorms and Rain
7:35 PM 70.0 °F - 68.5 °F 95% 29.67 in 1.5 mi South 17.3 mph - 0.47 in Rain , Thunderstorm Heavy Thunderstorms and Rain
7:55 PM 68.2 °F - 66.4 °F 94% 29.64 in 4.0 mi South 8.1 mph 11.5 mph 0.68 in Rain , Thunderstorm Thunderstorms and Rain
8:15 PM 68.2 °F - 66.9 °F 96% 29.61 in 10.0 mi SE 8.1 mph - 0.01 in Rain , Thunderstorm Light Thunderstorms and Rain
8:35 PM 68.9 °F - 67.1 °F 94% 29.61 in 10.0 mi ESE 5.8 mph - 0.01 in Thunderstorm Thunderstorm
8:55 PM 69.1 °F - 67.3 °F 94% 29.61 in 10.0 mi SSE 9.2 mph - 0.01 in Thunderstorm Mostly Cloudy
9:15 PM 69.3 °F - 67.5 °F 94% 29.64 in 10.0 mi NNE 12.7 mph 20.7 mph N/A Thunderstorm Thunderstorm
9:35 PM 69.3 °F - 67.3 °F 93% 29.64 in 10.0 mi NNE 11.5 mph - N/A   Overcast
9:55 PM 69.1 °F - 67.3 °F 94% 29.66 in 7.0 mi NE 10.4 mph - 0.04 in Rain , Thunderstorm Heavy Thunderstorms and Rain
10:15 PM 68.7 °F - 66.7 °F 93% 29.67 in 5.0 mi NNE 16.1 mph - N/A Rain Light Rain
10:35 PM 67.1 °F - 64.4 °F 91% 29.67 in 7.0 mi ENE 11.5 mph - 0.01 in Rain Light Rain
10:55 PM 65.7 °F - 63.0 °F 91% 29.69 in 7.0 mi NE 16.1 mph 20.7 mph 0.01 in   Overcast
11:15 PM 63.9 °F - 61.9 °F 93% 29.73 in 2.0 mi ESE 5.8 mph 11.5 mph 0.22 in Rain , Thunderstorm Heavy Thunderstorms and Rain
11:35 PM 63.1 °F - 61.7 °F 95% 29.71 in 7.0 mi ENE 3.5 mph - 0.38 in Rain , Thunderstorm Light Thunderstorms and Rain
11:55 PM 63.5 °F - 61.7 °F 94% 29.70 in 10.0 mi East 4.6 mph - 0.38 in Rain Light Rain